This is the latest recevied weather packets stored in our database for station/object K4HOG. If no packets are shown the sender has not sent any weather packets the latest 10 day(s).
| Time | Temp. | Humidity | Pressure | Rain* | Wind** | Luminosity | Snow |
|---|---|---|---|---|---|---|---|
| 1778096532 | 33.89° C | 44% | 1014.8 hPa | 0 mm | - | 426 W/m² | - |
| 1778096231 | 34.44° C | 43% | 1014.8 hPa | 0 mm | - | 507 W/m² | - |
| 1778095927 | 34.44° C | 45% | 1014.8 hPa | 0 mm | - | 717 W/m² | - |
| 1778095624 | 33.89° C | 45% | 1015 hPa | 0 mm | - | 737 W/m² | - |
| 1778095320 | 34.44° C | 43% | 1014.9 hPa | 0 mm | - | 714 W/m² | - |
| 1778095017 | 33.89° C | 43% | 1015.2 hPa | 0 mm | - | 739 W/m² | - |
| 1778094713 | 34.44° C | 43% | 1015.2 hPa | 0 mm | - | 810 W/m² | - |
| 1778094411 | 33.33° C | 44% | 1015.2 hPa | 0 mm | - | 724 W/m² | - |
| 1778094107 | 33.89° C | 45% | 1015.2 hPa | 0 mm | - | 786 W/m² | - |
| 1778093804 | 34.44° C | 44% | 1015.3 hPa | 0 mm | - | 818 W/m² | - |
| 1778093500 | 33.89° C | 44% | 1015.4 hPa | 0 mm | - | 805 W/m² | - |
| 1778093198 | 33.33° C | 47% | 1015.4 hPa | 0 mm | - | 806 W/m² | - |
| 1778092895 | 33.33° C | 45% | 1015.4 hPa | 0 mm | - | 820 W/m² | - |
| 1778092592 | 33.33° C | 45% | 1015.5 hPa | 0 mm | - | 830 W/m² | - |
| 1778092287 | 33.33° C | 46% | 1015.6 hPa | 0 mm | - | 848 W/m² | - |
| 1778091986 | 33.33° C | 45% | 1015.5 hPa | 0 mm | - | 836 W/m² | - |
| 1778091682 | 33.33° C | 46% | 1015.7 hPa | 0 mm | - | 871 W/m² | - |
| 1778091380 | 32.78° C | 46% | 1015.8 hPa | 0 mm | - | 877 W/m² | - |
| 1778091077 | 32.78° C | 46% | 1015.9 hPa | 0 mm | - | 813 W/m² | - |
| 1778090774 | 33.33° C | 47% | 1015.9 hPa | 0 mm | - | 834 W/m² | - |
| 1778090470 | 32.78° C | 46% | 1016 hPa | 0 mm | - | 894 W/m² | - |
| 1778090166 | 32.78° C | 49% | 1016.2 hPa | 0 mm | - | 878 W/m² | - |
| 1778089862 | 32.22° C | 47% | 1016.2 hPa | 0 mm | - | 885 W/m² | - |
| 1778089562 | 32.22° C | 47% | 1016 hPa | 0 mm | - | 884 W/m² | - |
| 1778089257 | 32.78° C | 46% | 1016.2 hPa | 0 mm | - | 794 W/m² | - |
* Rain latest hour (hover to see other rain measurements)
** Current wind speed in m/s (hover to see current wind gust speed)